GW2670 Weather Reports


time (UTC)temp
F
wind
direction
speed
knots
gust
knots
rain 1hr
in
rain 24hr
in
rain mn
in
humidity
%
barometer
mb
20260504202520 52 219 0.9 7.0 0.02 0.23 0.23 91 1011.2
20260504202017 52 287 0.9 6.1 0.03 0.23 0.23 91 1011.0
20260504201530 52 246 2.6 6.1 0.04 0.23 0.23 91 1011.0
20260504201014 52 227 0.9 3.5 0.04 0.23 0.23 92 1011.0
20260504200514 52 225 0.9 3.5 0.06 0.23 0.23 92 1010.8
20260504200030 52 238 0.9 4.3 0.08 0.23 0.23 92 1010.7
20260504195513 52 0 0.0 4.3 0.08 0.23 0.23 92 1010.7
20260504195014 52 255 0.9 3.5 0.09 0.23 0.23 92 1010.7
20260504194530 52 148 0.0 2.6 0.08 0.22 0.22 92 1010.7
20260504194012 52 153 0.9 2.6 0.08 0.22 0.22 91 1010.7
20260504193515 52 0 0.0 2.6 0.07 0.22 0.22 91 1010.6
20260504193030 52 238 0.9 1.7 0.07 0.22 0.22 91 1010.5
20260504192515 52 0 0.0 0.9 0.06 0.20 0.20 90 1010.6
20260504192015 53 0 0.0 0.9 0.05 0.19 0.19 90 1010.6
20260504191534 53 250 0.0 0.9 0.04 0.18 0.18 89 1010.4
20260504191012 53 0 0.0 0.9 0.03 0.18 0.18 89 1010.3
20260504190520 53 0 0.0 3.5 0.02 0.16 0.16 88 1010.3
20260504190032 53 246 0.0 5.2 0.00 0.14 0.14 87 1010.4
20260504185513 54 164 1.7 5.2 0.00 0.14 0.14 86 1010.3
20260504185014 54 226 1.7 4.3 0.00 0.14 0.14 86 1010.4
20260504184528 54 227 1.7 7.8 0.00 0.14 0.14 85 1010.2
20260504184014 54 203 2.6 7.8 0.00 0.14 0.14 84 1010.3
20260504183513 54 115 2.6 7.0 0.00 0.14 0.14 84 1010.3
20260504183030 54 236 1.7 9.6 0.00 0.14 0.14 84 1010.2
20260504182514 54 229 1.7 9.6 0.00 0.14 0.14 84 1010.1
20260504182014 54 183 4.3 9.6 0.00 0.14 0.14 84 1010.1
20260504181533 54 148 3.5 8.7 0.00 0.14 0.14 85 1010.2
20260504181014 54 166 2.6 8.7 0.00 0.14 0.14 86 1010.3
20260504180517 54 214 2.6 7.8 0.00 0.14 0.14 86 1010.4
20260504180030 54 28 2.6 7.8 0.00 0.14 0.14 87 1010.5
20260504175521 54 229 2.6 7.0 0.00 0.14 0.14 87 1010.5
20260504175014 54 205 1.7 7.0 0.00 0.14 0.14 87 1010.5
20260504174529 54 221 0.0 3.5 0.00 0.14 0.14 88 1010.6
20260504174015 54 18 0.9 4.3 0.00 0.14 0.14 87 1010.7
20260504173517 54 258 0.9 6.1 0.00 0.14 0.14 87 1010.6
20260504173031 54 209 3.5 6.1 0.00 0.14 0.14 87 1010.7
20260504172513 54 175 0.9 2.6 0.00 0.14 0.14 87 1010.8
20260504172014 54 239 0.0 4.3 0.00 0.14 0.14 87 1010.8
20260504171528 55 55 0.9 6.1 0.00 0.14 0.14 86 1010.8
20260504171015 55 216 1.7 7.0 0.00 0.14 0.14 85 1010.8
20260504170514 56 29 1.7 7.0 0.00 0.14 0.14 83 1010.7
20260504151014 60 234 3.5 10.4 0.00 0.13 0.13 76 1011.2
20260504150515 60 195 3.5 10.4 0.00 0.13 0.13 76 1011.2
20260504141013 62 107 2.6 13.0 0.00 0.13 0.13 73 1011.5
20260504140514 63 189 4.3 13.0 0.00 0.13 0.13 71 1011.5
20260504130513 59 0 0.0 6.1 0.00 0.13 0.13 80 1011.7
20260504110514 58 0 0.0 0.9 0.00 0.13 0.13 80 1013.3
20260504100513 57 0 0.0 0.9 0.00 0.13 0.13 85 1013.6
20260504081527 54 0 0.0 0.9 0.00 0.13 0.13 87 1013.6
20260504081011 53 0 0.0 5.2 0.00 0.13 0.13 88 1013.5
20260504080511 53 95 0.0 6.1 0.00 0.13 0.13 87 1013.5
20260504050515 52 279 1.7 8.7 0.01 0.02 0.02 88 1012.8
20260504045515 52 184 2.6 7.0 0.02 0.02 0.02 90 1012.9
20260504045014 52 245 1.7 5.2 0.02 0.02 0.02 90 1012.8
20260504044532 52 88 0.9 3.5 0.02 0.02 0.02 90 1012.8
20260504044015 52 205 0.0 2.6 0.02 0.02 0.02 90 1012.9
20260504043515 52 248 0.9 3.5 0.02 0.02 0.02 90 1012.9
20260504043030 52 237 0.9 5.2 0.02 0.02 0.02 89 1012.9
20260504042514 52 258 1.7 7.8 0.02 0.02 0.02 89 1012.9
20260504042014 52 274 0.9 7.8 0.02 0.02 0.02 89 1012.9
20260504041531 53 98 1.7 7.8 0.01 0.01 0.01 88 1012.9
20260504041014 53 155 0.9 10.4 0.01 0.01 0.01 89 1012.9
20260504040515 53 222 1.7 10.4 0.00 0.00 0.00 89 1012.7
20260504040030 53 195 1.7 6.1 0.00 0.00 0.00 89 1012.8
20260504035513 53 287 2.6 6.1 0.00 0.00 0.00 89 1012.9
20260504035015 53 339 1.7 3.5 0.00 0.00 0.00 89 1012.9
20260504034531 53 334 0.9 6.1 0.00 0.00 0.00 89 1013.0
20260504034015 53 281 0.9 6.1 0.00 0.00 0.00 88 1013.1
20260504033516 53 229 0.9 4.3 0.00 0.00 0.00 88 1013.2
20260504033029 53 279 0.9 7.8 0.00 0.00 0.00 87 1013.2
20260504032516 53 158 0.9 7.8 0.00 0.00 0.00 87 1013.2
20260504032015 53 297 1.7 7.8 0.00 0.00 0.00 87 1013.2
20260504031528 53 39 1.7 7.0 0.00 0.00 0.00 87 1013.1
20260504031015 53 98 2.6 7.0 0.00 0.00 0.00 87 1013.1
20260504030514 53 221 1.7 7.0 0.00 0.00 0.00 87 1013.1
20260504030030 53 182 1.7 7.0 0.00 0.00 0.00 87 1013.0
20260504025515 53 207 1.7 7.0 0.00 0.00 0.00 87 1013.1
20260504025015 53 135 1.7 12.2 0.00 0.00 0.00 87 1013.2
20260504024530 53 199 3.5 12.2 0.00 0.00 0.00 87 1013.1
20260504024014 52 179 2.6 7.8 0.00 0.00 0.00 88 1013.1
20260504023514 53 101 1.7 5.2 0.00 0.00 0.00 87 1013.1
20260504023032 53 117 0.9 7.8 0.00 0.00 0.00 87 1013.2
20260504022514 53 87 2.6 8.7 0.00 0.00 0.00 87 1013.3
20260504022015 53 127 2.6 9.6 0.00 0.00 0.00 87 1013.3
20260504021531 53 86 1.7 9.6 0.00 0.00 0.00 87 1013.2
20260504021014 53 237 0.9 7.0 0.00 0.00 0.00 87 1013.3
20260504020514 53 98 1.7 8.7 0.00 0.00 0.00 87 1013.4
20260504020029 53 225 2.6 8.7 0.00 0.00 0.00 86 1013.4
20260504015514 53 142 3.5 13.0 0.00 0.00 0.00 86 1013.5
20260504015014 53 88 4.3 13.0 0.00 0.00 0.00 86 1013.4
20260504014528 53 130 2.6 7.8 0.00 0.00 0.00 86 1013.4
20260504014013 53 117 3.5 15.6 0.00 0.00 0.00 85 1013.4
20260504013514 53 205 1.7 15.6 0.00 0.00 0.00 84 1013.3
20260504013035 53 22 1.7 6.1 0.00 0.00 0.00 84 1013.5
20260504012515 53 123 1.7 6.1 0.00 0.00 0.00 85 1013.5
20260504012014 53 68 0.9 8.7 0.00 0.00 0.00 85 1013.5
20260504011533 53 210 1.7 8.7 0.00 0.00 0.00 84 1013.6
20260504011014 53 141 2.6 8.7 0.00 0.00 0.00 84 1013.4
20260504010514 53 149 1.7 8.7 0.00 0.00 0.00 83 1013.5
20260504010031 53 90 3.5 10.4 0.00 0.00 0.00 82 1013.4
20260504005514 53 57 2.6 10.4 0.00 0.00 0.00 81 1013.4
20260504005014 53 227 3.5 12.2 0.00 0.00 0.00 81 1013.5
20260504004530 53 30 4.3 12.2 0.00 0.00 0.00 80 1013.5
20260504004014 53 78 4.3 11.3 0.00 0.00 0.00 80 1013.7
20260504003514 53 257 3.5 11.3 0.00 0.00 0.00 79 1013.6
20260504003038 53 100 1.7 7.8 0.00 0.00 0.00 80 1013.8
20260504002514 53 116 3.5 7.8 0.00 0.00 0.00 80 1013.9
20260504002014 53 94 2.6 9.6 0.00 0.00 0.00 81 1014.0
20260504001535 53 123 3.5 9.6 0.00 0.00 0.00 81 1014.1
20260504001014 53 125 3.5 8.7 0.00 0.00 0.00 80 1014.2
20260504000514 53 142 2.6 7.8 0.00 0.00 0.00 79 1014.1
20260504000051 53 165 2.6 9.6 0.00 0.00 0.00 79 1014.1
20260503235514 54 192 2.6 10.4 0.00 0.00 0.00 78 1014.1
20260503235014 54 164 5.2 10.4 0.00 0.00 0.00 77 1014.2
20260503234533 54 163 2.6 8.7 0.00 0.00 0.00 76 1014.3
20260503234014 54 182 2.6 13.9 0.00 0.00 0.00 76 1014.3
20260503233513 54 123 4.3 13.9 0.00 0.00 0.00 77 1014.3
20260503233031 54 112 1.7 9.6 0.00 0.00 0.00 78 1014.3
20260503232514 54 92 3.5 13.0 0.00 0.00 0.00 78 1014.4
20260503232014 54 30 4.3 13.0 0.00 0.00 0.00 78 1014.4
20260503231529 54 177 4.3 12.2 0.00 0.00 0.00 79 1014.5
20260503231015 54 232 1.7 10.4 0.00 0.00 0.00 79 1014.5
20260503230514 54 275 2.6 10.4 0.00 0.00 0.00 79 1014.6
20260503230028 54 178 3.5 9.6 0.00 0.00 0.00 79 1014.7
20260503225513 54 159 3.5 9.6 0.00 0.00 0.00 78 1014.7
20260503225013 54 74 1.7 10.4 0.00 0.00 0.00 78 1014.7
20260503224530 54 142 3.5 10.4 0.00 0.00 0.00 77 1014.7
20260503224014 54 351 1.7 12.2 0.00 0.00 0.00 78 1014.7
20260503223511 54 88 0.9 12.2 0.00 0.00 0.00 78 1014.6
20260503223037 54 182 3.5 9.6 0.00 0.00 0.00 78 1014.6
20260503222514 54 131 4.3 9.6 0.00 0.00 0.00 78 1014.6
20260503222012 54 188 4.3 9.6 0.00 0.00 0.00 78 1014.7
20260503221535 54 227 2.6 8.7 0.00 0.00 0.00 79 1014.7
20260503221014 54 162 3.5 7.8 0.00 0.00 0.00 79 1014.7
20260503220514 54 94 4.3 8.7 0.00 0.00 0.00 79 1014.7
20260503220032 54 142 2.6 8.7 0.00 0.00 0.00 80 1014.7
20260503215513 54 168 3.5 12.2 0.00 0.00 0.00 80 1014.9
20260503215014 54 90 4.3 12.2 0.00 0.00 0.00 80 1014.7
20260503214530 54 219 3.5 13.0 0.00 0.00 0.00 80 1014.7
20260503214019 54 344 3.5 13.0 0.00 0.00 0.00 81 1014.7
20260503213516 54 167 3.5 13.0 0.00 0.00 0.00 81 1014.6
20260503213028 54 173 6.1 10.4 0.00 0.00 0.00 81 1014.7
20260503212514 54 219 2.6 10.4 0.00 0.00 0.00 80 1014.7
20260503212012 54 267 3.5 11.3 0.00 0.00 0.00 80 1014.7
20260503211527 54 103 4.3 11.3 0.00 0.00 0.00 80 1014.8
20260503211014 54 229 3.5 8.7 0.00 0.00 0.00 80 1014.9
20260503210515 54 137 3.5 9.6 0.00 0.00 0.00 79 1015.0
20260503210032 54 180 3.5 9.6 0.00 0.00 0.00 79 1015.1
20260503205513 54 186 1.7 7.0 0.00 0.00 0.00 78 1015.1
20260503205014 54 103 1.7 8.7 0.00 0.00 0.00 78 1015.2
20260503204529 54 194 2.6 9.6 0.00 0.00 0.00 78 1015.2
20260503204013 54 262 1.7 9.6 0.00 0.00 0.00 78 1015.3
20260503203515 54 150 2.6 8.7 0.00 0.00 0.00 77 1015.2
20260503203040 54 218 3.5 10.4 0.00 0.00 0.00 77 1015.2